Regional Weather Roundup
Issued by NWS

Home | Current Version | Previous Version | Text Only | Print | Product List | Glossary Off
Versions: 1 2 3 4 5 6 7 8 9 10 11 12 13 14 15 16 17 18 19 20 21 22 23 24 25 26 27 28 29 30 31 32 33 34 35 36 37 38 39 40 41 42 43 44 45 46 47 48 49 50

000
ASUS43 KFSD 021302
RWRSD

WEATHER ROUNDUP FOR SOUTH DAKOTA
NATIONAL WEATHER SERVICE SIOUX FALLS SD
800 AM CDT THU JUL 02 2015

NOTE: "FAIR" INDICATES FEW OR NO CLOUDS BELOW 12,000 FEET WITH NO
SIGNIFICANT WEATHER AND/OR OBSTRUCTIONS TO VISIBILITY.


SDZ001>005-009-010-012>017-021400-
NORTHWEST AND NORTH CENTRAL SOUTH DAKOTA

CITY           SKY/WX    TMP DP  RH WIND       PRES   REMARKS
BUFFALO          N/A     63  60  90 N6        30.01R
FAITH            N/A     65  61  87 NW7       30.01S
MOBRIDGE       HVY RAIN  64  64 100 NE3       29.96R FOG
$$

SDZ012>016-024>037-041>051-057-063-072>074-021400-
SOUTHWEST AND SOUTH CENTRAL SOUTH DAKOTA

CITY           SKY/WX    TMP DP  RH WIND       PRES   REMARKS
RAPID CTY ARPT SUNNY     65  62  90 N14       30.06R
PIERRE         LGT RAIN  61  60  97 SE8       29.96R
CUSTER         MOSUNNY   60  51  72 W6        30.18S
ELLSWORTH AFB  SUNNY     65  64  94 N14       30.06R
PHILIP         SUNNY     69  66  90 NW9       29.98R
PINE RIDGE     SUNNY     62  58  86 W9        30.07S
WINNER         CLOUDY    65  60  84 NE14G24   29.96R
$$

SDZ004>011-016>023-039-040-021400-
NORTHEAST SOUTH DAKOTA

CITY           SKY/WX    TMP DP  RH WIND       PRES   REMARKS
ABERDEEN       LGT RAIN  62  58  86 S7        29.97S FOG
WATERTOWN      PTSUNNY   61  55  81 SE9       30.00S
BROOKINGS      CLOUDY    57  54  88 SE8       30.02F
SISSETON         N/A     58  56  93 S7        29.99S
$$

SDZ017-020-022-023-036>040-048>070-021400-
SOUTHEAST SOUTH DAKOTA

CITY           SKY/WX    TMP DP  RH WIND       PRES   REMARKS
SIOUX FALLS    CLOUDY    60  53  77 E7        30.00S
HURON          CLOUDY    60  57  89 E9        29.96R
MITCHELL       LGT RAIN  60  58  92 SE9       29.96F
YANKTON        CLOUDY    59  55  88 E8        29.96F
$$

ABBREVIATIONS USED IN REMARKS
   TC - TEMPERATURE IN CELSIUS
  WCI - WIND CHILL INDEX
   HX - HEAT INDEX
  VSB - VISIBILITY




USA.gov is the U.S. government's official web portal to all federal, state and local government web resources and services.